K3HW Weather Reports


time (UTC)temp
C
wind
direction
speed
KPH
gust
KPH
rain 1hr
cm
rain 24hr
cm
rain mn
cm
humidity
%
barometer
mb
20260505170244 27 199 8.0 14.5 0.00 0.00 0.00 39 1013.6
20260505165744 27 110 4.8 6.4 0.00 0.00 0.00 41 1013.7
20260505165240 27 271 6.4 9.7 0.00 0.00 0.00 39 1013.7
20260505164736 27 357 3.2 4.8 0.00 0.00 0.00 40 1013.6
20260505164233 27 283 4.8 6.4 0.00 0.00 0.00 40 1013.9
20260505163731 27 252 3.2 4.8 0.00 0.00 0.00 39 1014.0
20260505163230 27 324 3.2 6.4 0.00 0.00 0.00 42 1013.9
20260505162726 27 29 3.2 3.2 0.00 0.00 0.00 42 1013.7
20260505162223 26 0 6.4 14.5 0.00 0.00 0.00 41 1013.9
20260505161720 27 351 4.8 4.8 0.00 0.00 0.00 43 1013.9
20260505161218 27 340 1.6 1.6 0.00 0.00 0.00 42 1014.0
20260505160715 27 47 3.2 3.2 0.00 0.00 0.00 40 1014.0
20260505160213 26 29 1.6 1.6 0.00 0.00 0.00 41 1014.1
20260505153152 26 355 6.4 11.3 0.00 0.00 0.00 42 1014.2
20260505152649 26 267 3.2 3.2 0.00 0.00 0.00 43 1014.3
20260505152144 26 207 4.8 4.8 0.00 0.00 0.00 43 1014.1
20260505151640 26 28 1.6 3.2 0.00 0.00 0.00 44 1014.4
20260505151137 26 272 8.0 9.7 0.00 0.00 0.00 45 1014.2
20260505150633 25 36 1.6 1.6 0.00 0.00 0.00 45 1014.2
20260505150131 25 353 4.8 6.4 0.00 0.00 0.00 46 1014.2
20260505140559 22 134 3.2 3.2 0.00 0.00 0.00 51 1014.6
20260505125012 19 30 1.6 1.6 0.00 0.00 0.00 59 1015.1
20260505124509 18 56 0.0 0.0 0.00 0.00 0.00 59 1014.9
20260505124005 18 50 1.6 3.2 0.00 0.00 0.00 59 1015.1
20260505123502 18 134 3.2 4.8 0.00 0.00 0.00 59 1015.2
20260505122958 18 6 3.2 3.2 0.00 0.00 0.00 60 1015.1
20260505122455 18 160 3.2 4.8 0.00 0.00 0.00 60 1014.9
20260505121952 18 10 0.0 1.6 0.00 0.00 0.00 60 1014.7
20260505121449 18 42 1.6 1.6 0.00 0.00 0.00 60 1014.6
20260505120945 17 39 1.6 1.6 0.00 0.00 0.00 61 1014.7
20260505120442 17 21 1.6 1.6 0.00 0.00 0.00 61 1014.6
20260505115941 17 159 3.2 4.8 0.00 0.00 0.00 61 1014.7
20260505115437 17 39 0.0 0.0 0.00 0.00 0.00 62 1014.7
20260505114935 17 50 1.6 1.6 0.00 0.00 0.00 62 1014.5
20260505114431 17 24 0.0 1.6 0.00 0.00 0.00 62 1014.7
20260505113928 17 32 1.6 1.6 0.00 0.00 0.00 63 1014.6
20260505113425 17 29 1.6 1.6 0.00 0.00 0.00 63 1014.8
20260505112920 17 34 0.0 0.0 0.00 0.00 0.00 64 1014.5
20260505112418 16 39 0.0 0.0 0.00 0.00 0.00 64 1014.4
20260505111914 16 38 0.0 0.0 0.00 0.00 0.00 66 1014.6
20260505111409 16 37 0.0 0.0 0.00 0.00 0.00 66 1014.4
20260505110905 15 47 0.0 0.0 0.00 0.00 0.00 67 1014.5
20260505110402 14 37 0.0 0.0 0.00 0.00 0.00 71 1014.3
20260505101833 12 39 0.0 0.0 0.00 0.00 0.00 76 1014.2
20260505101328 12 37 0.0 0.0 0.00 0.00 0.00 76 1014.1
20260505100824 12 38 0.0 0.0 0.00 0.00 0.00 76 1014.1
20260505100321 12 43 0.0 0.0 0.00 0.00 0.00 76 1014.1
20260505095816 12 40 0.0 0.0 0.00 0.00 0.00 75 1013.7
20260505095314 12 42 0.0 0.0 0.00 0.00 0.00 74 1014.0
20260505094810 13 36 0.0 0.0 0.00 0.00 0.00 73 1014.0
20260505094307 13 37 0.0 0.0 0.00 0.00 0.00 72 1013.9
20260505093802 13 39 0.0 0.0 0.00 0.00 0.00 72 1013.7
20260505093300 13 37 0.0 0.0 0.00 0.00 0.00 71 1013.6
20260505092757 13 39 0.0 0.0 0.00 0.00 0.00 71 1013.9
20260505092255 13 39 0.0 0.0 0.00 0.00 0.00 70 1013.5
20260505091752 13 37 0.0 0.0 0.00 0.00 0.00 70 1013.7
20260505091250 13 35 0.0 0.0 0.00 0.00 0.00 70 1013.7
20260505090748 13 36 0.0 0.0 0.00 0.00 0.00 70 1013.7
20260505090246 13 36 0.0 0.0 0.00 0.00 0.00 69 1013.7
20260505085743 13 38 0.0 0.0 0.00 0.00 0.00 69 1013.6
20260505085241 14 39 0.0 0.0 0.00 0.00 0.00 68 1013.4
20260505084738 14 42 0.0 0.0 0.00 0.00 0.00 68 1013.4
20260505084238 14 49 0.0 0.0 0.00 0.00 0.00 67 1013.2
20260505083734 14 37 0.0 0.0 0.00 0.00 0.00 67 1013.6
20260505083230 15 37 0.0 0.0 0.00 0.00 0.00 67 1013.7
20260505082726 15 36 0.0 0.0 0.00 0.00 0.00 66 1013.7
20260505082224 15 39 0.0 1.6 0.00 0.00 0.00 66 1013.9
20260505081719 15 39 0.0 0.0 0.00 0.00 0.00 66 1013.5
20260505081217 15 41 0.0 0.0 0.00 0.00 0.00 65 1013.7
20260505080714 15 37 0.0 0.0 0.00 0.00 0.00 65 1013.5
20260505080210 15 40 0.0 0.0 0.00 0.00 0.00 64 1013.6
20260505075706 15 39 0.0 0.0 0.00 0.00 0.00 64 1013.6
20260505075203 16 39 0.0 0.0 0.00 0.00 0.00 63 1013.7
20260505074700 15 51 0.0 0.0 0.00 0.00 0.00 63 1013.7
20260505074157 15 41 0.0 0.0 0.00 0.00 0.00 63 1013.9
20260505073655 16 39 0.0 0.0 0.00 0.00 0.00 62 1013.6
20260505073153 16 37 0.0 0.0 0.00 0.00 0.00 62 1013.7
20260505072648 16 36 0.0 0.0 0.00 0.00 0.00 62 1013.5
20260505072145 16 7 1.6 1.6 0.00 0.00 0.00 61 1013.5
20260505071640 16 40 0.0 0.0 0.00 0.00 0.00 62 1013.5
20260505071138 16 38 0.0 1.6 0.00 0.00 0.00 61 1013.6
20260505070635 16 40 0.0 1.6 0.00 0.00 0.00 61 1013.7
20260505070131 16 40 0.0 0.0 0.00 0.00 0.00 60 1013.6
20260505065627 16 61 0.0 1.6 0.00 0.00 0.00 61 1013.6
20260505065124 16 38 0.0 0.0 0.00 0.00 0.00 61 1013.5
20260505064621 16 349 4.8 6.4 0.00 0.00 0.00 61 1013.7
20260505064120 16 27 1.6 1.6 0.00 0.00 0.00 61 1013.6
20260505063617 16 29 0.0 0.0 0.00 0.00 0.00 61 1013.7
20260505063112 16 36 0.0 0.0 0.00 0.00 0.00 61 1013.5
20260505062609 16 8 1.6 1.6 0.00 0.00 0.00 61 1013.7
20260505062106 16 29 1.6 3.2 0.00 0.00 0.00 61 1013.7
20260505061603 16 52 0.0 0.0 0.00 0.00 0.00 61 1013.7
20260505061101 15 37 0.0 0.0 0.00 0.00 0.00 62 1013.4
20260505060559 15 38 0.0 0.0 0.00 0.00 0.00 61 1013.6
20260505060055 15 32 0.0 1.6 0.00 0.00 0.00 61 1013.6
20260505055550 15 39 0.0 0.0 0.00 0.00 0.00 61 1013.7
20260505055048 16 37 0.0 0.0 0.00 0.00 0.00 60 1013.9
20260505054545 16 38 1.6 1.6 0.00 0.00 0.00 60 1013.6
20260505054043 15 333 1.6 3.2 0.00 0.00 0.00 61 1013.7
20260505053539 15 41 0.0 0.0 0.00 0.00 0.00 60 1013.5
20260505053036 16 42 0.0 0.0 0.00 0.00 0.00 59 1013.5
20260505052533 16 40 0.0 1.6 0.00 0.00 0.00 59 1013.5
20260505052031 16 52 0.0 0.0 0.00 0.00 0.00 59 1013.6
20260505051527 16 34 1.6 1.6 0.00 0.00 0.00 58 1013.9
20260505051026 16 47 0.0 1.6 0.00 0.00 0.00 58 1013.7
20260505050524 16 51 1.6 1.6 0.00 0.00 0.00 57 1013.7
20260505041451 17 58 1.6 3.2 0.00 0.00 0.00 54 1013.6
20260505040948 17 49 0.0 1.6 0.00 0.00 0.00 54 1013.6
20260505040446 16 52 1.6 1.6 0.00 0.00 0.00 54 1013.6
20260505035942 17 43 1.6 1.6 0.00 0.00 0.00 54 1013.6
20260505035438 17 38 1.6 1.6 0.00 0.00 0.00 54 1013.7
20260505034936 17 37 0.0 0.0 0.00 0.00 0.00 53 1013.4
20260505034432 17 42 0.0 1.6 0.00 0.00 0.00 52 1013.5
20260505033929 17 52 0.0 0.0 0.00 0.00 0.00 51 1013.4
20260505033426 17 117 3.2 4.8 0.00 0.00 0.00 50 1013.4
20260505032924 17 61 0.0 1.6 0.00 0.00 0.00 52 1013.4
20260505032421 17 65 0.0 0.0 0.00 0.00 0.00 50 1013.6
20260505031918 17 90 0.0 1.6 0.00 0.00 0.00 50 1013.6
20260505031414 17 22 1.6 1.6 0.00 0.00 0.00 51 1013.4
20260505030912 16 46 0.0 0.0 0.00 0.00 0.00 52 1013.6
20260505030407 17 35 0.0 0.0 0.00 0.00 0.00 52 1013.5
20260505025903 17 48 0.0 0.0 0.00 0.00 0.00 52 1013.5
20260505025401 17 50 0.0 0.0 0.00 0.00 0.00 51 1013.6
20260505024859 17 35 0.0 0.0 0.00 0.00 0.00 51 1013.6
20260505024356 17 44 0.0 0.0 0.00 0.00 0.00 51 1013.7
20260505023853 17 35 0.0 1.6 0.00 0.00 0.00 51 1013.9
20260505023350 16 53 1.6 1.6 0.00 0.00 0.00 52 1013.7
20260505022848 16 40 0.0 0.0 0.00 0.00 0.00 53 1014.0
20260505022344 16 43 0.0 0.0 0.00 0.00 0.00 54 1013.9
20260505021842 16 41 0.0 0.0 0.00 0.00 0.00 53 1013.7
20260505021338 17 40 0.0 0.0 0.00 0.00 0.00 52 1013.9
20260505020834 17 47 0.0 0.0 0.00 0.00 0.00 52 1014.0
20260505020330 17 40 1.6 1.6 0.00 0.00 0.00 51 1013.9
20260505015827 16 42 0.0 0.0 0.00 0.00 0.00 54 1013.6
20260505015324 16 40 0.0 0.0 0.00 0.00 0.00 54 1013.9
20260505014821 16 42 0.0 0.0 0.00 0.00 0.00 52 1013.9
20260505014318 16 21 0.0 0.0 0.00 0.00 0.00 51 1014.0
20260505013814 16 37 0.0 0.0 0.00 0.00 0.00 53 1013.9
20260505013312 15 41 0.0 0.0 0.00 0.00 0.00 59 1014.0
20260505012810 15 40 0.0 0.0 0.00 0.00 0.00 57 1014.0
20260505012308 15 41 0.0 0.0 0.00 0.00 0.00 58 1014.0
20260505011803 15 41 0.0 0.0 0.00 0.00 0.00 57 1014.0
20260505011300 15 38 0.0 0.0 0.00 0.00 0.00 57 1013.6
20260505010756 16 41 0.0 0.0 0.00 0.00 0.00 56 1013.7
20260505010252 16 39 0.0 0.0 0.00 0.00 0.00 54 1013.7
20260505005748 16 41 0.0 0.0 0.00 0.00 0.00 52 1013.4
20260505005246 16 40 0.0 0.0 0.00 0.00 0.00 52 1013.4
20260505004743 17 39 0.0 0.0 0.00 0.00 0.00 51 1013.5
20260505004239 17 41 0.0 0.0 0.00 0.00 0.00 51 1013.3
20260505003736 17 43 0.0 0.0 0.00 0.00 0.00 49 1013.5
20260505003234 18 42 0.0 0.0 0.00 0.00 0.00 48 1013.4
20260505002730 18 46 0.0 0.0 0.00 0.00 0.00 46 1013.2
20260505002228 18 42 0.0 0.0 0.00 0.00 0.00 47 1013.4
20260505001725 18 45 0.0 0.0 0.00 0.00 0.00 45 1013.3
20260505001223 18 47 0.0 0.0 0.00 0.00 0.00 44 1013.1
20260505000719 19 48 0.0 1.6 0.00 0.00 0.00 44 1013.1
20260505000218 19 41 0.0 0.0 0.00 0.00 0.00 43 1013.1
20260504235714 19 67 0.0 1.6 0.00 0.00 0.00 43 1013.0
20260504235210 20 42 0.0 0.0 0.00 0.00 0.00 44 1012.9
20260504234707 20 71 1.6 1.6 0.00 0.00 0.00 42 1013.1
20260504234204 20 43 0.0 0.0 0.00 0.00 0.00 42 1013.1
20260504233700 20 57 0.0 0.0 0.00 0.00 0.00 42 1012.8
20260504233156 20 41 1.6 3.2 0.00 0.00 0.00 40 1013.0
20260504232654 21 42 1.6 3.2 0.00 0.00 0.00 40 1013.0
20260504232151 21 55 1.6 3.2 0.00 0.00 0.00 40 1013.0
20260504231647 21 66 0.0 1.6 0.00 0.00 0.00 39 1012.9
20260504231144 21 36 1.6 1.6 0.00 0.00 0.00 39 1013.0
20260504230640 21 56 0.0 0.0 0.00 0.00 0.00 38 1012.8
20260504230139 21 150 3.2 3.2 0.00 0.00 0.00 38 1013.0
20260504225637 21 79 3.2 4.8 0.00 0.00 0.00 37 1013.0
20260504225132 21 81 1.6 3.2 0.00 0.00 0.00 38 1012.9
20260504224630 22 357 4.8 4.8 0.00 0.00 0.00 38 1012.7
20260504224126 22 39 1.6 1.6 0.00 0.00 0.00 40 1012.9
20260504223623 22 8 3.2 3.2 0.00 0.00 0.00 38 1012.8
20260504223119 22 78 3.2 3.2 0.00 0.00 0.00 37 1013.0
20260504222616 22 45 3.2 3.2 0.00 0.00 0.00 38 1013.1
20260504222114 22 55 3.2 4.8 0.00 0.00 0.00 37 1013.1
20260504221611 22 83 3.2 3.2 0.00 0.00 0.00 37 1013.1
20260504221108 22 352 4.8 4.8 0.00 0.00 0.00 38 1013.2
20260504220604 22 57 3.2 4.8 0.00 0.00 0.00 38 1013.2
20260504220101 22 181 6.4 6.4 0.00 0.00 0.00 37 1013.3
20260504215557 22 131 3.2 4.8 0.00 0.00 0.00 37 1013.1
20260504215055 23 332 3.2 3.2 0.00 0.00 0.00 39 1013.2
20260504214550 23 84 1.6 3.2 0.00 0.00 0.00 37 1013.3
20260504214047 22 31 3.2 3.2 0.00 0.00 0.00 38 1013.3
20260504213544 22 37 3.2 6.4 0.00 0.00 0.00 36 1013.4
20260504213041 22 95 3.2 3.2 0.00 0.00 0.00 40 1013.1
20260504212537 22 226 3.2 6.4 0.00 0.00 0.00 37 1013.3
20260504212034 22 44 1.6 3.2 0.00 0.00 0.00 38 1013.3
20260504211531 22 295 3.2 3.2 0.00 0.00 0.00 38 1013.4
20260504211028 22 274 1.6 3.2 0.00 0.00 0.00 39 1013.1
20260504210525 22 37 0.0 0.0 0.00 0.00 0.00 40 1013.2
20260504210022 22 225 8.0 11.3 0.00 0.00 0.00 37 1013.4
20260504205520 22 22 1.6 1.6 0.00 0.00 0.00 41 1013.3
20260504205018 22 266 3.2 4.8 0.00 0.00 0.00 41 1013.2
20260504204515 22 312 4.8 6.4 0.00 0.00 0.00 40 1013.4
20260504204014 22 347 4.8 6.4 0.00 0.00 0.00 38 1013.3
20260504203512 22 272 6.4 9.7 0.00 0.00 0.00 37 1013.3
20260504203009 22 71 0.0 1.6 0.00 0.00 0.00 38 1013.5
20260504202504 22 247 6.4 6.4 0.00 0.00 0.00 38 1013.5
20260504202001 22 188 4.8 6.4 0.00 0.00 0.00 37 1013.4
20260504201458 22 146 6.4 6.4 0.00 0.00 0.00 39 1013.6
20260504200956 22 267 4.8 6.4 0.00 0.00 0.00 38 1013.5
20260504200452 22 288 6.4 9.7 0.00 0.00 0.00 38 1013.6
20260504195949 22 348 3.2 4.8 0.00 0.00 0.00 38 1013.6
20260504195445 22 247 6.4 6.4 0.00 0.00 0.00 39 1013.7
20260504194942 22 236 4.8 4.8 0.00 0.00 0.00 37 1013.6
20260504194438 22 252 3.2 4.8 0.00 0.00 0.00 40 1013.9
20260504193934 22 245 4.8 4.8 0.00 0.00 0.00 37 1013.6
20260504193431 22 278 6.4 9.7 0.00 0.00 0.00 37 1013.6
20260504192930 22 232 8.0 12.9 0.00 0.00 0.00 38 1013.9
20260504192427 22 46 1.6 3.2 0.00 0.00 0.00 39 1013.9
20260504191926 21 150 3.2 4.8 0.00 0.00 0.00 38 1014.1
20260504191423 21 34 3.2 4.8 0.00 0.00 0.00 39 1014.1
20260504190918 21 108 4.8 4.8 0.00 0.00 0.00 37 1013.9
20260504190414 21 99 6.4 11.3 0.00 0.00 0.00 37 1014.3
20260504185911 21 241 8.0 11.3 0.00 0.00 0.00 38 1014.4
20260504185408 21 141 4.8 4.8 0.00 0.00 0.00 40 1014.4
20260504184904 21 38 1.6 3.2 0.00 0.00 0.00 37 1014.4
20260504184400 21 283 4.8 4.8 0.00 0.00 0.00 37 1014.6
20260504183856 21 239 4.8 4.8 0.00 0.00 0.00 37 1014.5
20260504183354 21 280 4.8 6.4 0.00 0.00 0.00 38 1014.5
20260504182851 21 33 1.6 3.2 0.00 0.00 0.00 38 1014.8
20260504182348 22 312 4.8 6.4 0.00 0.00 0.00 37 1014.6
20260504181845 22 35 0.0 1.6 0.00 0.00 0.00 39 1014.7
20260504181343 21 4 0.0 1.6 0.00 0.00 0.00 38 1014.8
20260504180841 21 265 4.8 4.8 0.00 0.00 0.00 37 1014.7
20260504180339 21 32 1.6 1.6 0.00 0.00 0.00 37 1015.0
20260504175837 21 18 1.6 1.6 0.00 0.00 0.00 39 1015.0
20260504175333 21 29 8.0 11.3 0.00 0.00 0.00 37 1015.1
20260504174832 21 33 3.2 6.4 0.00 0.00 0.00 40 1015.1
20260504174329 21 42 3.2 3.2 0.00 0.00 0.00 39 1015.3
20260504173826 21 102 4.8 6.4 0.00 0.00 0.00 38 1015.4
20260504173323 21 347 4.8 4.8 0.00 0.00 0.00 37 1015.1
20260504172820 20 280 6.4 6.4 0.00 0.00 0.00 41 1015.3
20260504172316 20 270 6.4 9.7 0.00 0.00 0.00 38 1015.4
20260504171812 21 114 1.6 3.2 0.00 0.00 0.00 39 1015.3
20260504171309 20 144 6.4 11.3 0.00 0.00 0.00 38 1015.6
20260504170807 20 279 4.8 6.4 0.00 0.00 0.00 37 1015.5